Regional Weather Roundup
Issued by NWS Tiyan, Guam

Home | Current Version | Previous Version | Text Only | Print | Product List | Glossary On
Versions: 1 2 3 4 5 6 7 8 9 10 11 12 13 14 15 16 17 18 19 20 21 22 23 24 25 26 27
000
ASGM40 PGUM 160712
RWRGUM
WEATHER ROUNDUP FOR THE MARIANAS
NATIONAL WEATHER SERVICE TIYAN GU
500 PM GSST WED APR 16 2014

GUZ001>004-160800-
MARIANA ISLANDS-

CITY           SKY/WX    TMP DP  RH WIND       PRES   REMARKS
GUAM AIRPORT   SUNNY     88  73  62 NE14      29.75S HX  96
ANDERSEN AFB   PTSUNNY   84  77  79 NE12      29.76S HX  94
ROTA AIRPORT   MOSUNNY   82  75  78 E12       29.76S
TINIAN AP      MOSUNNY   82  73  74 NE16      29.74F
SAIPAN AP      MOSUNNY   84  75  74 NE15      29.76R HX  92

$$




USA.gov is the U.S. government's official web portal to all federal, state and local government web resources and services.